Location: Unspecified
(51.6250°N, 0.8230°E)
Time: 18:16:19
(UTC+01:00)

Intercosmos 25 - Visible Passes

Search period start: 12 April 2021 00:00
Search period end: 22 April 2021 00:00
Orbit: 439 x 2876 km, 82.6° (Epoch: 11 April)

Date Brightness Start Highest point End Pass type
(mag) Time Alt. Az. Time Alt. Az. Time Alt. Az.
12 Apr 7.1 20:04:48 10° NNW 20:15:45 61° W 20:31:02 10° SSW visible
12 Apr 8.5 22:06:55 10° NNW 22:14:33 21° WNW 22:23:51 10° WSW visible
13 Apr 8.5 22:01:18 10° NNW 22:09:06 21° WNW 22:18:32 10° WSW visible
14 Apr 8.6 21:55:43 10° NNW 22:03:39 21° WNW 22:13:13 10° WSW visible
15 Apr 8.6 21:50:08 10° NNW 21:58:13 21° WNW 22:07:53 10° WSW visible
16 Apr 8.7 21:44:33 10° NNW 21:52:46 21° WNW 22:02:34 10° WSW visible
17 Apr 8.7 21:38:58 10° NNW 21:47:20 21° WNW 21:57:13 10° WSW visible
18 Apr 8.8 21:33:24 10° NNW 21:41:54 21° WNW 21:51:52 10° WSW visible
19 Apr 8.8 21:27:51 10° NNW 21:36:28 21° WNW 21:46:31 10° WSW visible
20 Apr 8.3 05:10:19 10° ENE 05:11:01 10° NE 05:11:43 10° NE visible
20 Apr 8.9 21:22:18 10° NNW 21:31:02 21° WNW 21:41:09 10° WSW visible
21 Apr 8.3 05:03:40 10° ENE 05:05:23 11° NE 05:07:17 10° NE visible
21 Apr 8.9 21:16:45 10° NNW 21:25:36 22° WNW 21:35:47 10° WSW visible
